Regional Weather Roundup
Issued by NWS Northern Indiana

Home | Current Version | Previous Version | Graphics & Text | Print | Product List | Glossary On
Versions: 1 2 3 4 5 6 7 8 9 10 11 12 13 14 15 16 17 18 19 20 21 22 23 24 25 26 27 28 29 30 31 32 33 34 35 36 37 38 39 40 41 42 43 44 45 46 47 48 49 50
000
ASUS43 KIWX 241410
RWRIWX

KIWX WEATHER ROUNDUP
NATIONAL WEATHER SERVICE NORTHERN INDIANA
900 AM EST SAT JAN 24 2015

NOTE: "FAIR" INDICATES FEW OR NO CLOUDS BELOW 12,000 FEET WITH NO
SIGNIFICANT WEATHER AND/OR OBSTRUCTIONS TO VISIBILITY.

* THESE STATIONS ARE NOT UNDER NWS QUALITY CONTROL. THEY ALSO MAY NOT
  REPORT WEATHER SUCH AS PRECIPITATION OR FOG.

INZ001>027-241500-
NORTHERN INDIANA

CITY           SKY/WX    TMP DP  RH WIND       PRES   REMARKS
GARY*          MOCLDY    32  25  74 W9        29.73R WCI  24
VALPARAISO     CLOUDY    30  26  85 W9        29.71S WCI  22
MICHIGAN CITY* CLOUDY    32  27  80 W5        29.71R HAZE    WCI  27
LAPORTE*       CLOUDY    32  29  90 W6        29.71R FOG     WCI  26
KNOX*          CLOUDY    29  21  71 W6        29.71R WCI  23
SOUTH BEND     CLOUDY    29  25  85 W5        29.70R FOG     WCI  24
GOSHEN         CLOUDY    27  24  89 SW8       29.69R FOG     WCI  19
MONTICELLO*    CLEAR     28  26  92 W5        29.73S WCI  22
LOGANSPORT*    CLEAR     28  27  93 SW7       29.73F FOG     WCI  21
ROCHESTER*     CLEAR     30  28  93 SW5       29.72S FOG     WCI  25
WARSAW*        MOCLDY    28  27  93 SW6       29.70S FOG     WCI  22
ANGOLA*        CLOUDY    27  25  93 SW3       29.66F
FORT WAYNE     PTCLDY    27  24  89 SW12      29.71F WCI  17
HUNTINGTON*    CLEAR     27  22  81 SW6       29.71F WCI  20
PERU/GRISSOM   CLEAR     28  25  89 W10       29.72S WCI  18
MARION*        CLEAR     27  24  90 SW9       29.74S FOG     WCI  18

$$
INZ028>050-241500-
CENTRAL INDIANA

CITY           SKY/WX    TMP DP  RH WIND       PRES   REMARKS
LAFAYETTE      CLEAR     26  24  92 SW5       29.75S FOG     WCI  20
KOKOMO*        CLEAR     28  25  86 W9        29.73S WCI  20
MUNCIE*        CLEAR     27  23  85 SW6       29.72F WCI  20
INDIANAPOLIS   CLEAR     25  23  92 SW13      29.76S WCI  14

$$
MIZ043>046-050>051-056>058-064>065-071>073-077>080-241500-
SOUTHWEST LOWER MICHIGAN

CITY           SKY/WX    TMP DP  RH WIND       PRES   REMARKS
BATTLE CREEK   CLOUDY    31  25  78 W8        29.65S HAZE    WCI  23
BENTON HARBOR  CLOUDY    33  30  88 W10       29.69S FOG     WCI  25
COLDWATER*     CLOUDY    27  25  91 MISG      29.65F FOG
HILLSDALE*     CLOUDY    28  26  94 SW6       29.64F FOG     WCI  21
HOLLAND        CLOUDY    36  30  79 W8        29.66S
GRAND RAPIDS   CLOUDY    33  29  85 W9        29.64S FOG     WCI  25
KALAMAZOO      CLOUDY    28  24  85 SW6       29.67R FOG     WCI  22
STURGIS*       CLOUDY    27  25  93 SW5       29.67R FOG     WCI  21
THREE RIVERS*  CLOUDY    27  24  91 SW3       29.68R FOG

$$
OHZ001>008-015>018-024>025-241500-
NORTHWEST OHIO

CITY           SKY/WX    TMP DP  RH WIND       PRES   REMARKS
WAUSEON*       CLOUDY    28  25  86 SW9G16    29.67F WCI  20
DEFIANCE       CLOUDY    29  24  82 SW7       29.70F WCI  22
FINDLAY        CLOUDY    29  24  82 SW7       29.70F WCI  22
TOLEDO EXPRESS CLOUDY    27  23  85 SW8       29.68F WCI  19
TOLEDO METCALF CLOUDY    29  23  78 SW10      29.69F WCI  20
LIMA           PTSUNNY   29  23  78 SW9       29.70F HAZE    WCI  20

$$
AND FOR LAKE MICHIGAN COASTAL AND OPEN LAKE BUOY OBSERVATIONS

STATION/POSITION TEMP    WIND        PRES    VSBY  WAVE
                 AIR SEA DIR/SP/G                  HT/PER
                 (F)     (DEG/KT/KT) (MB)    (MI)  (FT/S)
CALUMET HARBOR    31     250/  6/ 10   N/A
MICHIGAN CITY     31     250/ 17/ 19   N/A
SAINT JOSEPH      34     260/ 11/ 15 1005.8F

$$
&&



USA.gov is the U.S. government's official web portal to all federal, state and local government web resources and services.